Hourly Weather Russkaya Tavra

Today, 15 April, Thursday

Time Temperature Precipitation Wind Pressure Humidity
00:00 +8°C° 0 mm 1 mps 749 mmHg 92%
01:00 +8°C° 0 mm 1 mps 749 mmHg 92%
02:00 +8°C° 0 mm 1 mps 749 mmHg 93%
03:00 +8°C° 0 mm 1 mps 749 mmHg 94%
04:00 +7°C° 0 mm 1 mps 749 mmHg 95%
05:00 +7°C° 0 mm 1 mps 749 mmHg 91%
06:00 +7°C° 0 mm 2 mps 749 mmHg 87%
07:00 +7°C° 0 mm 2 mps 748 mmHg 83%
08:00 +9°C° 0 mm 2 mps 748 mmHg 76%
09:00 +11°C° 0 mm 3 mps 748 mmHg 68%
10:00 +13°C° 0 mm 4 mps 748 mmHg 61%
11:00 +14°C° 0 mm 4 mps 747 mmHg 57%
12:00 +17°C° 0 mm 4 mps 747 mmHg 53%
13:00 +18°C° 0 mm 4 mps 747 mmHg 49%
14:00 +18°C° 0 mm 4 mps 746 mmHg 50%
15:00 +18°C° 0 mm 4 mps 746 mmHg 51%
16:00 +18°C° 0 mm 4 mps 746 mmHg 53%
17:00 +17°C° 0 mm 3 mps 745 mmHg 60%
18:00 +14°C° 0 mm 3 mps 745 mmHg 67%
19:00 +13°C° 0 mm 2 mps 745 mmHg 74%
20:00 +13°C° 0 mm 2 mps 745 mmHg 75%
21:00 +12°C° 0 mm 2 mps 745 mmHg 76%
22:00 +10°C° 0 mm 2 mps 745 mmHg 76%
23:00 +9°C° 0 mm 2 mps 744 mmHg 76%

Tomorrow, 16 April, Friday

Time Temperature Precipitation Wind Pressure Humidity
00:00 +9°C° 0 mm 2 mps 744 mmHg 76%
01:00 +9°C° 0 mm 2 mps 744 mmHg 76%
02:00 +8°C° 0 mm 2 mps 744 mmHg 81%
03:00 +7°C° 0 mm 2 mps 745 mmHg 85%
04:00 +8°C° 0 mm 1 mps 745 mmHg 90%
05:00 +7°C° 0 mm 2 mps 745 mmHg 91%
06:00 +7°C° 0 mm 2 mps 746 mmHg 92%
07:00 +7°C° 0 mm 3 mps 746 mmHg 93%
08:00 +7°C° 0 mm 3 mps 746 mmHg 91%
09:00 +5°C° 0 mm 4 mps 747 mmHg 90%
10:00 +5°C° 0 mm 5 mps 747 mmHg 88%
11:00 +5°C° 0 mm 5 mps 747 mmHg 87%
12:00 +5°C° 0 mm 4 mps 748 mmHg 86%
13:00 +4°C° 0 mm 4 mps 748 mmHg 85%
14:00 +4°C° 0 mm 4 mps 748 mmHg 85%
15:00 +4°C° 0 mm 4 mps 748 mmHg 84%
16:00 +4°C° 0 mm 4 mps 748 mmHg 84%
17:00 +4°C° 0 mm 3 mps 748 mmHg 85%
18:00 +4°C° 0 mm 3 mps 748 mmHg 87%
19:00 +4°C° 0 mm 2 mps 748 mmHg 88%
20:00 +4°C° 0 mm 2 mps 748 mmHg 89%
21:00 +3°C° 0 mm 2 mps 748 mmHg 90%
22:00 +3°C° 0 mm 2 mps 748 mmHg 91%
23:00 +2°C° 0 mm 2 mps 748 mmHg 90%

Day after tomorrow, 17 April, Saturday

Time Temperature Precipitation Wind Pressure Humidity
00:00 +2°C° 0 mm 2 mps 748 mmHg 89%
01:00 +2°C° 0 mm 2 mps 748 mmHg 88%
02:00 +1°C° 0 mm 2 mps 748 mmHg 87%
03:00 +1°C° 0 mm 2 mps 748 mmHg 87%
04:00 +1°C° 0 mm 2 mps 748 mmHg 86%
05:00 +2°C° 0 mm 2 mps 748 mmHg 81%
06:00 +2°C° 0 mm 2 mps 748 mmHg 77%
07:00 +3°C° 0 mm 2 mps 749 mmHg 73%
08:00 +4°C° 0 mm 2 mps 749 mmHg 66%
09:00 +5°C° 0 mm 3 mps 749 mmHg 59%
10:00 +7°C° 0 mm 3 mps 749 mmHg 52%
11:00 +8°C° 0 mm 3 mps 749 mmHg 48%
12:00 +9°C° 0 mm 3 mps 748 mmHg 44%
13:00 +9°C° 0 mm 2 mps 748 mmHg 40%
14:00 +10°C° 0 mm 2 mps 748 mmHg 39%
15:00 +10°C° 0 mm 2 mps 748 mmHg 39%
16:00 +10°C° 0 mm 2 mps 747 mmHg 38%
17:00 +9°C° 0 mm 2 mps 747 mmHg 44%
18:00 +8°C° 0 mm 2 mps 747 mmHg 50%
19:00 +7°C° 0 mm 2 mps 747 mmHg 56%
20:00 +6°C° 0 mm 2 mps 747 mmHg 60%
21:00 +5°C° 0 mm 2 mps 747 mmHg 64%
22:00 +4°C° 0 mm 2 mps 746 mmHg 68%
23:00 +4°C° 0 mm 2 mps 746 mmHg 70%

18 April, Sunday

Time Temperature Precipitation Wind Pressure Humidity
00:00 +3°C° 0 mm 2 mps 746 mmHg 73%
01:00 +3°C° 0 mm 1 mps 746 mmHg 76%
02:00 +2°C° 0 mm 2 mps 746 mmHg 77%
03:00 +2°C° 0 mm 2 mps 745 mmHg 79%
04:00 +1°C° 0 mm 2 mps 745 mmHg 81%
05:00 +2°C° 0 mm 2 mps 745 mmHg 78%
06:00 +2°C° 0 mm 3 mps 745 mmHg 75%
07:00 +2°C° 0 mm 3 mps 745 mmHg 73%
08:00 +4°C° 0 mm 4 mps 745 mmHg 68%
09:00 +5°C° 0 mm 5 mps 745 mmHg 64%
10:00 +6°C° 0 mm 5 mps 745 mmHg 59%
11:00 +6°C° 0.1 mm 5 mps 745 mmHg 59%
12:00 +5°C° 0.1 mm 5 mps 745 mmHg 60%
13:00 +4°C° 0.1 mm 6 mps 746 mmHg 60%
14:00 +5°C° 0 mm 5 mps 746 mmHg 56%
15:00 +5°C° 0 mm 5 mps 747 mmHg 52%
16:00 +3°C° 0 mm 5 mps 747 mmHg 47%
17:00 +2°C° 0 mm 5 mps 748 mmHg 47%
18:00 +1°C° 0 mm 5 mps 748 mmHg 47%
19:00 +1°C° 0 mm 6 mps 749 mmHg 47%
20:00 0°C° 0 mm 5 mps 750 mmHg 50%
21:00 -1°C° 0 mm 5 mps 750 mmHg 53%
22:00 -2°C° 0 mm 5 mps 751 mmHg 56%
23:00 -3°C° 0 mm 4 mps 752 mmHg 56%

19 April, Monday

Time Temperature Precipitation Wind Pressure Humidity
00:00 -3°C° 0 mm 4 mps 752 mmHg 56%
01:00 -3°C° 0 mm 4 mps 752 mmHg 55%
02:00 -4°C° 0 mm 4 mps 753 mmHg 53%
03:00 -4°C° 0 mm 4 mps 753 mmHg 52%
04:00 -4°C° 0 mm 4 mps 754 mmHg 50%
05:00 -4°C° 0 mm 4 mps 754 mmHg 46%
06:00 -4°C° 0 mm 4 mps 754 mmHg 43%
07:00 -4°C° 0 mm 4 mps 755 mmHg 40%
08:00 -3°C° 0 mm 4 mps 755 mmHg 36%
09:00 -2°C° 0 mm 4 mps 755 mmHg 33%
10:00 -1°C° 0 mm 4 mps 755 mmHg 29%
11:00 -1°C° 0 mm 4 mps 755 mmHg 29%
12:00 +1°C° 0 mm 3 mps 754 mmHg 28%
13:00 +2°C° 0 mm 3 mps 754 mmHg 28%
14:00 +2°C° 0 mm 3 mps 754 mmHg 28%
15:00 +3°C° 0 mm 3 mps 754 mmHg 28%
16:00 +3°C° 0 mm 3 mps 754 mmHg 28%
17:00 +3°C° 0 mm 2 mps 754 mmHg 33%
18:00 +2°C° 0 mm 2 mps 754 mmHg 37%
19:00 +3°C° 0 mm 1 mps 754 mmHg 42%
20:00 +2°C° 0 mm 1 mps 754 mmHg 43%
21:00 +1°C° 0 mm 1 mps 754 mmHg 45%
22:00 0°C° 0 mm 0 mps 754 mmHg 46%
23:00 0°C° 0 mm 0 mps 754 mmHg 47%

20 April, Tuesday

Time Temperature Precipitation Wind Pressure Humidity
00:00 -1°C° 0 mm 0 mps 754 mmHg 48%
01:00 -1°C° 0 mm 0 mps 754 mmHg 48%
02:00 0°C° 0 mm 1 mps 754 mmHg 49%
03:00 0°C° 0 mm 1 mps 754 mmHg 49%
04:00 0°C° 0 mm 1 mps 754 mmHg 49%
05:00 +1°C° 0 mm 1 mps 754 mmHg 46%
06:00 +1°C° 0 mm 1 mps 755 mmHg 43%
07:00 +2°C° 0 mm 1 mps 755 mmHg 41%
08:00 +3°C° 0 mm 1 mps 755 mmHg 39%
09:00 +4°C° 0 mm 1 mps 754 mmHg 37%
10:00 +4°C° 0 mm 2 mps 754 mmHg 35%
11:00 +5°C° 0 mm 2 mps 754 mmHg 34%
12:00 +6°C° 0 mm 2 mps 754 mmHg 33%
13:00 +6°C° 0 mm 2 mps 754 mmHg 32%
14:00 +7°C° 0 mm 2 mps 754 mmHg 33%
15:00 +7°C° 0 mm 2 mps 753 mmHg 33%
16:00 +7°C° 0 mm 2 mps 753 mmHg 34%
17:00 +6°C° 0 mm 2 mps 753 mmHg 39%
18:00 +7°C° 0 mm 1 mps 753 mmHg 44%
19:00 +6°C° 0 mm 1 mps 753 mmHg 49%
20:00 +5°C° 0 mm 1 mps 754 mmHg 51%
21:00 +4°C° 0 mm 1 mps 754 mmHg 54%
22:00 +3°C° 0 mm 0 mps 754 mmHg 56%
23:00 +2°C° 0 mm 0 mps 754 mmHg 57%
Show more